Location: Caltech
(34.1382°N, 118.1253°W)
Time: 07:33:23
(UTC-08:00)

Daily predictions for brighter satellites

Satellite Brightness Start Highest point End
(mag) Time Altitude Azimuth Time Altitude Azimuth Time Altitude Azimuth
Cosmos 1603 4.0 17:21:09 10° SSW 17:26:52 77° WNW 17:32:39 10° NNE
Cosmos 1486 Rocket 4.0 17:22:37 10° NNW 17:27:56 78° ENE 17:33:09 10° SSE
Cosmos 1943 3.3 17:24:10 10° S 17:29:40 58° ESE 17:35:11 10° NNE
Cosmos 1992 Rocket 4.1 17:27:53 10° S 17:32:59 59° ESE 17:38:05 10° NNE
OAO 3 Copernicus 4.4 17:30:12 10° W 17:35:17 90° SSW 17:40:22 10° E
EO 1 Del DPAF 4.3 17:33:28 10° NE 17:36:43 26° E 17:39:56 10° SSE
Cosmos 1726 2.9 17:36:14 10° NNE 17:39:29 29° E 17:42:42 10° SE
CZ-2C R/B 3.8 17:36:07 10° NNE 17:40:52 85° ESE 17:45:30 10° SSW
SMAP 3.5 17:36:17 10° S 17:40:55 70° WSW 17:45:34 10° NNW
METEOR-M 4.2 17:38:00 10° SSE 17:43:15 62° ENE 17:48:33 10° N
Cosmos 2221 3.1 17:39:57 10° NNE 17:44:00 36° E 17:48:02 10° SSE
COSMO-SKYMED 1 2.6 17:42:44 10° NNE 17:47:03 64° E 17:51:21 10° S
Cosmos 1674 3.3 17:44:35 10° SSW 17:48:19 60° W 17:52:03 10° N
BREEZE-M DEB (TANK) 3.3 17:40:37 10° WSW 17:48:20 55° NW 17:51:12 10° NE
IRAS Rocket 4.5 17:44:03 10° S 17:49:33 77° WSW 17:55:07 10° NNW
NOSS 2-1 (C) 4.3 17:46:16 10° SW 17:49:46 42° NW 17:53:28 10° NNE
SL-14 R/B 3.9 17:46:14 10° SSE 17:49:54 35° E 17:53:32 10° NNE
NOSS 2-1 (D) 4.4 17:46:56 10° SW 17:50:24 40° NW 17:54:05 10° NNE
Landsat 4 3.6 17:52:26 10° NNE 17:56:11 71° ESE 17:59:53 10° S
CZ-4 R/B 4.4 17:53:58 10° SSE 17:58:04 83° ENE 18:02:12 10° N
Cosmos 968 Rocket 4.1 17:54:56 10° N 17:59:30 31° ENE 18:04:00 10° SE
BREEZE M DEB (TANK) 4.4 17:56:10 10° W 18:00:27 53° NNW 18:16:04 11° NE
Tiangong 1 2.9 17:59:44 10° NW 18:01:12 14° N 18:02:19 11° NNE
Cosmos 1315 Rocket 3.6 17:58:10 10° SSE 18:01:38 30° E 18:05:00 11° NNE
Cosmos 2366 rocket 4.5 17:56:19 10° NNE 18:02:01 36° ENE 18:07:37 10° SE
MONITOR-E 4.1 18:01:48 10° SSE 18:04:47 59° ENE 18:07:48 10° N
TSX-5 4.4 18:06:13 10° SSE 18:08:52 25° ESE 18:09:33 23° E
Meteor 2-14 Rocket 4.4 18:03:16 10° N 18:09:24 82° E 18:15:28 10° S
ATLAS 2AS CENTAUR R/B 2.9 18:04:15 10° NNW 18:12:05 64° ENE 18:19:12 10° SE
Cosmos 2341 Rocket 4.1 18:05:53 10° N 18:12:09 83° W 18:18:26 10° S
H-2A R/B 3.7 18:10:28 10° WSW 18:13:23 36° S 18:23:32 10° ESE
Cosmos 1300 2.9 18:09:44 10° N 18:13:26 46° E 18:17:06 10° SSE
Cosmos 2369 Rocket 2.1 18:08:33 10° NNW 18:14:14 77° ENE 18:19:55 10° SSE
Meteor 2-10 3.8 18:09:55 10° N 18:14:57 73° E 18:20:02 10° SSE
Meteor 2-8 Rocket 4.5 18:09:05 10° S 18:15:03 58° E 18:21:04 10° NNE
Okean 3 Rocket 3.6 18:11:32 10° S 18:16:04 88° W 18:20:37 10° N
Cosmos 1076 Rocket 3.5 18:12:05 10° S 18:16:25 88° E 18:20:49 10° N
Thor Agena Rocket 4.4 18:14:35 16° NE 18:17:55 30° E 18:22:26 10° SSE
OAO 3 Rocket 3.1 18:13:21 10° WSW 18:18:04 85° SSE 18:20:50 25° E
Cosmos 1626 2.8 18:15:22 10° SSE 18:18:40 31° E 18:19:30 28° ENE
ALOS 2.3 18:18:27 10° S 18:23:07 83° WSW 18:27:48 10° NNW
Cosmos 1766 Rocket 3.5 18:20:26 10° S 18:24:40 57° E 18:28:50 10° NNE
Cosmos 2084 3.2 18:22:24 10° NW 18:26:13 80° WSW 18:30:08 10° SSE
SPOT 3 Rocket 3.5 18:24:41 10° SSE 18:29:50 87° ENE 18:35:00 10° NNW
ERS-2 2.0 18:28:09 10° SSE 18:31:48 76° ENE 18:35:29 10° N
Cosmos 1400 Rocket 4.3 18:31:59 10° SSW 18:35:42 37° WNW 18:39:31 10° N
Cosmos 1328 3.7 18:32:30 10° S 18:36:31 90° E 18:40:06 13° N
GEOS 3 Rocket 3.8 18:34:37 21° ESE 18:37:52 49° NE 18:43:01 10° NNW
Meteor 2-2 Rocket 4.2 18:32:30 10° N 18:38:10 57° E 18:43:42 10° SSE
FengYun 1-2 T 4.2 18:34:40 10° SSE 18:40:13 61° ENE 18:45:46 10° N
Cosmos 1943 Rocket 2.0 18:34:56 10° NNW 18:40:33 83° ENE 18:46:05 10° SSE
Cosmos 864 Rocket 4.4 18:34:51 10° N 18:41:12 75° E 18:47:30 10° S
Cosmos 1656 Rocket 4.3 18:36:32 10° N 18:40:56 32° NE 18:40:56 32° NE
H-2A R/B 2.5 18:39:15 10° SSE 18:42:59 73° ENE 18:46:47 10° N
ASTRO E2 4.1 18:42:21 10° SW 18:45:39 25° SSE 18:45:57 24° SSE
COSMOS 2406 3.8 18:40:53 10° SSE 18:45:56 34° ESE 18:45:56 34° ESE
GPS 2-05 Rocket1 4.3 18:56:03 10° W 18:58:28 27° SSW 18:58:28 27° SSW
Centaur AC-64 4.5 19:07:51 10° SSW 19:09:03 17° S 19:09:03 17° S
Cosmos 2098 Rocket 3.5 19:07:05 10° N 19:12:08 80° E 19:18:30 10° S
Cosmos 1703 4.2 19:09:28 10° SSW 19:12:09 41° SSW 19:12:09 41° SSW
Cosmos 44 3.5 19:12:28 10° SW 19:16:37 56° WNW 19:16:37 56° WNW
Cosmos 44 Rocket 3.9 19:24:56 10° SW 19:29:00 52° W 19:29:00 52° W
